Weather History for Grand Marais Airport, MN

Change the Weather History Date:

Friday, October 26, 2012

  Actual Average Record
Temperature  
Mean Temperature 30 °F -  
Max Temperature 35 °F 41 °F 57 °F (2000)
Min Temperature 26 °F 29 °F 12 °F (1997)
Degree Days  
Heating Degree Days 34    
Moisture  
Dew Point 19 °F    
Average Humidity 65    
Maximum Humidity 74    
Minimum Humidity 56    
Precipitation  
Precipitation 0.00 in - - ()
Sea Level Pressure  
Sea Level Pressure 30.13 in    
Wind  
Wind Speed 9 mph (WSW)    
Max Wind Speed 14 mph    
Max Gust Speed 25 mph    
Visibility 10 miles    
Events Snow    
Averages and records for this station are not official NWS values.
T = Trace of Precipitation, MM = Missing Value Source: NWS Daily Summary

Daily Weather History Graph

Daily Weather History Graph

Search for Another Location

Airport:

Trip Planner

Search our weather history database for the weather conditions in past years. The results will help you decide how hot, cold, wet, or windy it might be!

Date:

Astronomy

Oct. 26, 2012 Rise Set
Actual Time 7:37 AM CDT 5:52 PM CDT
Civil Twilight 7:05 AM CDT 6:24 PM CDT
Nautical Twilight 6:29 AM CDT 7:00 PM CDT
Astronomical Twilight 5:53 AM CDT 7:36 PM CDT
Moon 4:17 PM CDT (10/26) 4:23 AM CDT (10/26)
Length of Visible Light 11h 18m
Length of Day
10h 14m
Waxing Gibbous, 91% of the Moon is Illuminated
Oct 26
Waxing Gibbous
Oct 29
Full
Nov 6
Last Quarter
Nov 13
New
Nov 20
First Quarter

Hourly Weather History & Observations

Time (CDT) Temp. Windchill Dew Point Humidity Pressure Visibility Wind Dir Wind Speed Gust Speed Precip Events Conditions
10:15 AM - - - N/A% 30.04 in - North - - N/A   Unknown
10:33 AM 30.2 °F 22.6 °F 21.2 °F 69% 30.05 in 10.0 mi West 8.1 mph 21.9 mph N/A   Unknown
10:53 AM 30.2 °F 20.8 °F 21.2 °F 69% 30.06 in 10.0 mi West 11.5 mph 21.9 mph N/A   Overcast
11:13 AM 30.2 °F 20.2 °F 21.2 °F 69% 30.07 in 10.0 mi WSW 12.7 mph 24.2 mph N/A   Overcast
11:34 AM 30.2 °F 22.6 °F 21.2 °F 69% 30.08 in 10.0 mi WSW 8.1 mph 23.0 mph N/A   Overcast
11:53 AM 30.2 °F 22.6 °F 19.4 °F 64% 30.09 in 10.0 mi WSW 8.1 mph 19.6 mph N/A   Overcast
12:14 PM 32.0 °F 26.4 °F 19.4 °F 60% 30.09 in 10.0 mi West 5.8 mph 25.3 mph N/A   Overcast
12:34 PM 35.6 °F 28.6 °F 21.2 °F 56% 30.09 in 10.0 mi SW 9.2 mph 17.3 mph N/A   Overcast
12:53 PM 35.6 °F 28.0 °F 21.2 °F 56% 30.10 in 10.0 mi WSW 10.4 mph 20.7 mph N/A   Overcast
1:13 PM 32.0 °F 24.2 °F 19.4 °F 60% 30.10 in 10.0 mi WSW 9.2 mph 17.3 mph N/A   Overcast
1:34 PM 33.8 °F 24.3 °F 21.2 °F 60% 30.11 in 10.0 mi WSW 13.8 mph 19.6 mph N/A   Overcast
1:53 PM 32.0 °F 22.5 °F 21.2 °F 64% 30.11 in 10.0 mi WSW 12.7 mph 20.7 mph N/A   Overcast
2:13 PM 33.8 °F 24.3 °F 21.2 °F 60% 30.11 in 10.0 mi WSW 13.8 mph 19.6 mph N/A   Overcast
2:34 PM 33.8 °F 25.8 °F 19.4 °F 56% 30.12 in 10.0 mi WSW 10.4 mph 17.3 mph N/A   Overcast
2:54 PM 32.0 °F 22.1 °F 21.2 °F 64% 30.12 in 10.0 mi WSW 13.8 mph 21.9 mph N/A   Overcast
3:13 PM 32.0 °F 23.6 °F 19.4 °F 60% 30.12 in 10.0 mi WSW 10.4 mph 17.3 mph N/A   Overcast
3:34 PM 30.2 °F 22.6 °F 19.4 °F 64% 30.13 in 10.0 mi SW 8.1 mph 17.3 mph N/A   Overcast
3:53 PM 30.2 °F 22.6 °F 19.4 °F 64% 30.14 in 10.0 mi WSW 8.1 mph 19.6 mph N/A   Overcast
4:13 PM 30.2 °F 23.4 °F 19.4 °F 64% 30.14 in 10.0 mi WSW 6.9 mph - N/A   Overcast
4:33 PM 30.2 °F 23.4 °F 19.4 °F 64% 30.14 in 10.0 mi WSW 6.9 mph 19.6 mph N/A   Overcast
4:54 PM 30.2 °F 20.8 °F 17.6 °F 60% 30.14 in 10.0 mi SW 11.5 mph 19.6 mph N/A   Overcast
5:13 PM 30.2 °F 21.3 °F 17.6 °F 60% 30.14 in 10.0 mi SW 10.4 mph 17.3 mph N/A   Overcast
5:33 PM 30.2 °F 21.3 °F 17.6 °F 60% 30.15 in 10.0 mi SW 10.4 mph - N/A   Overcast
5:54 PM 28.4 °F 21.2 °F 17.6 °F 64% 30.15 in 10.0 mi WSW 6.9 mph - N/A   Overcast
6:13 PM 28.4 °F 23.3 °F 17.6 °F 64% 30.15 in 10.0 mi WSW 4.6 mph - N/A   Overcast
6:33 PM 28.4 °F 22.2 °F 17.6 °F 64% 30.16 in 10.0 mi WSW 5.8 mph - N/A   Overcast
6:53 PM 28.4 °F 19.7 °F 17.6 °F 64% 30.16 in 10.0 mi West 9.2 mph - N/A   Overcast
7:14 PM 28.4 °F 19.7 °F 17.6 °F 64% 30.17 in 10.0 mi West 9.2 mph 17.3 mph N/A   Overcast
7:34 PM 28.4 °F 20.4 °F 17.6 °F 64% 30.17 in 10.0 mi West 8.1 mph - N/A   Overcast
7:54 PM 28.4 °F 21.2 °F 17.6 °F 64% 30.17 in 10.0 mi SW 6.9 mph - N/A   Overcast
8:13 PM 28.4 °F 22.2 °F 17.6 °F 64% 30.17 in 10.0 mi WSW 5.8 mph - N/A   Mostly Cloudy
8:34 PM 26.6 °F 19.1 °F 17.6 °F 69% 30.18 in 10.0 mi SW 6.9 mph - N/A   Scattered Clouds
9:14 PM 26.6 °F 19.1 °F 17.6 °F 69% 30.18 in 10.0 mi WSW 6.9 mph - N/A   Mostly Cloudy
9:33 PM 26.6 °F 20.0 °F 19.4 °F 74% 30.18 in 10.0 mi WSW 5.8 mph - N/A   Overcast
9:53 PM 26.6 °F 21.2 °F 19.4 °F 74% 30.18 in 10.0 mi SW 4.6 mph - N/A   Overcast
10:14 PM 26.6 °F 20.0 °F 19.4 °F 74% 30.18 in 10.0 mi WSW 5.8 mph - N/A   Overcast
10:33 PM 26.6 °F 22.6 °F 19.4 °F 74% 30.19 in 10.0 mi SW 3.5 mph - N/A Snow Light Snow
10:54 PM 26.6 °F 20.0 °F 19.4 °F 74% 30.19 in 10.0 mi WSW 5.8 mph - N/A   Overcast
11:33 PM 26.6 °F 20.0 °F 19.4 °F 74% 30.19 in 7.0 mi WSW 5.8 mph - N/A Snow Light Snow
11:54 PM 26.6 °F 20.0 °F 19.4 °F 74% 30.19 in 10.0 mi WSW 5.8 mph - N/A   Overcast